Location: Newark
(45.5000°N, 11.4167°E)
Time: 18:39:06
(UTC+00:00)

A-11 Canister half - Pass Details

Date: 21 August 2019
Orbit: 1514 x 1686 km, 47.2° (Epoch: 16 October)

Event Time Altitude Azimuth Distance (km) Brightness Sun altitude
Rises 18:24:53 0° 245° (WSW) 4,687 12.3 -2.9°
Reaches altitude 10° 18:27:53 10° 245° (WSW) 3,723 11.7 -3.4°
Maximum altitude 18:37:20 83° 160° (SSE) 1,600 9.1 -4.9°
Drops below altitude 10° 18:47:12 10° 74° (ENE) 3,866 10.7 -6.5°
Sets 18:50:23 0° 74° (ENE) 4,875 11.2 -7.0°
